Location: Fort Wayne
(41.1310°N, 85.1290°W)
Time: 14:50:04
(UTC-04:00)

Gbstr 26 Del rocket - Visible Passes

Search period start: 29 July 2014 00:00
Search period end: 08 August 2014 00:00
Orbit: 494 x 1279 km, 51.8° (Epoch: 28 July)

Date Brightness Start Highest point End Pass type
(mag) Time Alt. Az. Time Alt. Az. Time Alt. Az.
29 Jul 4.5 00:59:43 10° WNW 01:03:35 37° W 01:03:35 37° W visible
29 Jul 5.5 21:20:51 10° WNW 21:27:12 33° N 21:32:32 10° ENE visible
29 Jul 4.2 23:09:26 10° NW 23:15:46 53° NNE 23:18:22 29° E visible
30 Jul 4.9 00:57:34 10° WNW 01:01:02 30° W 01:01:02 30° W visible
30 Jul 4.0 23:07:09 10° NW 23:13:35 63° NNE 23:15:52 34° E visible
31 Jul 5.2 00:55:29 10° WNW 00:58:32 24° W 00:58:32 24° W visible
31 Jul 5.3 21:16:36 10° NW 21:23:06 36° N 21:28:31 10° ENE visible
31 Jul 3.7 23:04:51 10° NW 23:11:23 76° NNE 23:13:24 40° ESE visible
01 Aug 5.4 00:53:32 10° WNW 00:56:05 19° W 00:56:05 19° W visible
01 Aug 3.6 23:02:35 10° NW 23:09:07 89° SW 23:10:59 44° SE visible
02 Aug 5.7 00:51:46 10° W 00:53:40 15° W 00:53:40 15° W visible
02 Aug 3.7 23:00:19 10° WNW 23:06:49 73° SW 23:08:37 43° SSE visible
03 Aug 5.9 00:50:25 10° W 00:51:18 12° WSW 00:51:18 12° WSW visible
03 Aug 4.0 22:58:05 10° WNW 23:04:28 58° SW 23:06:17 39° SSE visible
04 Aug 4.3 22:55:53 10° WNW 23:02:03 46° SW 23:04:00 33° S visible
05 Aug 4.7 22:53:45 10° WNW 22:59:36 36° SW 23:01:47 26° S visible
06 Aug 5.1 22:51:42 10° WNW 22:57:06 28° SW 22:59:37 20° SSW visible
07 Aug 5.5 22:49:48 10° WNW 22:54:33 22° WSW 22:57:30 15° SSW visible
